Flag for India Weather past 2 weeks in Vasai-Virar, Maharashtra, India

Now
73 °F

Clear.


Feels Like: 68 °F
Forecast: 68 / 85 °F
Wind: No wind

Location: Bombay / Santacruz

Current Time: Feb 27, 2015 at 5:37:54 AM

Latest Report: Feb 27, 2015 at 4:40 AM


Visibility: 2 mi

Pressure: 29.83 "Hg

Humidity: 100%

Dew point: 73 °F

Location of Vasai-VirarLocation

Historic Weather in Vasai-Virar — Graph

°F

Vasai-Virar temperature yesterday

Maximum temperature yesterday: 82 °F (at 11:40 AM)
Minimum temperature yesterday: 73 °F (at 4:40 AM)
Average temperature yesterday: 77 °F

Past Weeks' High & Low Weather Summary

 TemperatureHumidityPressure
High102 °F (Feb 21, 3:40 PM)89% (Feb 17, 4:40 AM)29.98 "Hg (Feb 17, 4:40 AM)
Low72 °F (Feb 13, 5:40 AM)12% (Feb 21, 3:40 PM)29.77 "Hg (Feb 25, 4:40 PM)
Average81 °F58%29.88 "Hg
* Reported Feb 12 3:40 AM — Feb 27 3:40 AM, Vasai-Virar, Weather by CustomWeather, © 2015

Note: Actual official high and low records may vary slightly from our data, if they occured in-between our weather recording intervals... More about our weather records

Advertising

Vasai-Virar weather history for previous 24 hours

 ConditionsComfort  
Time TempWeatherWind HumidityBarometerVisibility
3:40 AM
Fri, Feb 27
73 °FClear.3 mph50%29.83 "Hg2 mi
2:40 AM73 °FClear.No wind50%29.83 "Hg2 mi
1:40 AM73 °FClear.3 mph53%29.83 "Hg2 mi
12:40 AM73 °FClear.No wind57%29.86 "Hg2 mi
11:40 PM
Thu, Feb 26
75 °FClear.5 mph54%29.86 "Hg2 mi
10:40 PM75 °FClear.5 mph50%29.89 "Hg2 mi
9:40 PM77 °FClear.6 mph47%29.86 "Hg2 mi
8:40 PM77 °FClear.7 mph47%29.86 "Hg2 mi
7:40 PM77 °FClear.9 mph51%29.83 "Hg2 mi
6:40 PM79 °FClear.10 mph45%29.83 "Hg3 mi
5:40 PM81 °FClear.12 mph34%29.80 "Hg3 mi
4:40 PM81 °FClear.8 mph48%29.80 "Hg3 mi
3:40 PM81 °FClear.8 mph51%29.80 "Hg3 mi
2:40 PM82 °FClear.14 mph51%29.83 "Hg3 mi
1:40 PM82 °FClear.12 mph51%29.83 "Hg3 mi
11:40 AM82 °FClear.8 mph51%29.89 "Hg2 mi
10:40 AM81 °FPassing clouds.7 mph54%29.89 "Hg2 mi
9:40 AM79 °FHaze.7 mph65%29.89 "Hg2 mi
8:40 AM77 °FHaze.12 mph74%29.89 "Hg2 mi
7:40 AM75 °FHaze.6 mph83%29.86 "Hg2 mi
6:40 AM73 °FHaze.5 mph89%29.83 "Hg2 mi
5:40 AM73 °FHaze.5 mph89%29.80 "Hg2 mi
Weather by CustomWeather, © 2015

See weather overviewHow to use our weather pages